EW1071 Weather Reports


Display with metric or nautical units.
time (UTC)temp
F
wind
direction
speed
MPH
gust
MPH
rain 1hr
in
rain 24hr
in
rain mn
in
humidity
%
barometer
mb
20260831231517 54 177 0.0 0.0 0.00 0.08 0.01 92 1018.1
20260831230017 54 177 0.0 2.0 0.00 0.08 0.01 92 1018.2
20260831224515 54 177 0.0 0.0 0.01 0.08 0.01 92 1018.3
20260831223014 54 177 0.0 3.0 0.01 0.08 0.01 92 1018.4
20260831221514 54 177 0.0 3.0 0.01 0.08 0.01 92 1018.5
20260831220010 55 177 0.0 2.0 0.01 0.08 0.01 91 1018.5
20260831214515 55 177 0.0 3.0 0.00 0.07 0.00 90 1018.8
20260831213006 55 177 0.0 11.0 0.00 0.07 0.00 90 1018.9
20260831211504 56 108 0.0 4.0 0.00 0.07 0.00 89 1019.0
20260831210045 56 108 2.0 7.0 0.00 0.07 0.00 89 1018.9
20260831204535 56 107 0.0 2.0 0.00 0.07 0.07 89 1019.1
20260831203035 56 107 0.0 0.0 0.00 0.07 0.07 89 1019.2
20260831201637 56 107 0.0 1.0 0.00 0.07 0.07 89 1019.1
20260831200040 56 107 0.0 1.0 0.00 0.07 0.07 89 1019.1
20260831194522 56 107 1.0 7.0 0.00 0.07 0.07 89 1019.1
20260831193010 55 107 0.0 7.0 0.00 0.07 0.07 89 1019.1
20260831191511 55 106 0.0 4.0 0.00 0.07 0.07 88 1019.0
20260831190010 55 107 0.0 4.0 0.00 0.07 0.07 88 1019.1
20260831184518 56 105 2.0 8.0 0.00 0.07 0.07 88 1018.9
20260831183109 55 108 2.0 7.0 0.00 0.07 0.07 88 1018.6
20260831181515 55 49 1.0 4.0 0.00 0.07 0.07 88 1018.5
20260831180008 55 49 0.0 3.0 0.00 0.07 0.07 87 1018.5
20260831174507 55 49 0.0 6.0 0.00 0.07 0.07 87 1018.6
20260831173005 54 89 1.0 6.0 0.00 0.07 0.07 86 1018.3
20260831171506 55 107 2.0 6.0 0.00 0.07 0.07 85 1018.2
20260831170004 56 110 2.0 8.0 0.00 0.07 0.07 84 1018.1
20260831164603 56 113 2.0 12.0 0.00 0.07 0.07 84 1018.0
20260831163004 56 100 4.0 9.0 0.00 0.07 0.07 83 1018.0
20260831161506 57 56 0.0 9.0 0.00 0.07 0.07 82 1017.8
20260831160002 57 49 0.0 5.0 0.00 0.07 0.07 81 1017.9
20260831154502 58 49 1.0 4.0 0.00 0.07 0.07 79 1017.8
20260831153002 59 49 0.0 4.0 0.00 0.07 0.07 77 1017.6
20260831151605 60 47 0.0 0.0 0.00 0.07 0.07 75 1017.4
20260831150059 61 47 0.0 0.0 0.00 0.07 0.07 76 1017.3
20260831144614 60 48 0.0 0.0 0.00 0.07 0.07 78 1017.2
20260831143056 59 49 0.0 3.0 0.00 0.07 0.07 80 1017.1
20260831141557 59 50 0.0 6.0 0.00 0.07 0.07 80 1017.2
20260831140032 59 55 0.0 3.0 0.00 0.07 0.07 79 1017.1
20260831134531 59 57 0.0 5.0 0.00 0.07 0.07 80 1017.1
20260831133031 59 87 0.0 0.0 0.00 0.07 0.07 79 1017.2
20260831131530 59 87 0.0 6.0 0.00 0.07 0.07 80 1017.0
20260831130029 59 105 0.0 6.0 0.00 0.07 0.07 79 1017.0
20260831124529 60 107 1.0 6.0 0.00 0.07 0.07 79 1017.1
20260831123027 59 108 0.0 9.0 0.00 0.07 0.07 79 1017.0
20260831121533 58 106 0.0 7.0 0.00 0.07 0.07 82 1017.2
20260831120024 58 112 1.0 4.0 0.00 0.07 0.07 82 1017.4
20260831114528 58 174 0.0 4.0 0.00 0.07 0.07 84 1017.5
20260831113020 57 143 0.0 11.0 0.00 0.07 0.07 84 1017.6
20260831111518 57 119 0.0 4.0 0.00 0.07 0.07 86 1017.8
20260831110015 56 117 0.0 14.0 0.00 0.07 0.07 90 1018.0
20260831104514 56 120 0.0 3.0 0.00 0.07 0.07 93 1018.2
20260831103013 55 119 0.0 6.0 0.00 0.07 0.07 92 1018.3
20260831101515 55 118 1.0 9.0 0.00 0.07 0.07 92 1018.4
20260831100014 55 117 0.0 8.0 0.00 0.07 0.07 93 1018.4
20260831094518 55 115 0.0 0.0 0.00 0.07 0.07 94 1018.6
20260831093010 53 133 1.0 8.0 0.00 0.07 0.07 95 1018.8
20260831091510 53 34 1.0 6.0 0.00 0.07 0.07 95 1019.0
20260831090014 53 355 0.0 4.0 0.00 0.07 0.07 95 1019.2
20260831084513 53 292 1.0 9.0 0.00 0.07 0.07 95 1019.4
20260831083009 53 287 0.0 7.0 0.00 0.07 0.07 95 1019.5
20260831081517 52 290 0.0 4.0 0.00 0.07 0.07 95 1019.6
20260831080005 52 290 0.0 10.0 0.00 0.07 0.07 95 1019.6
20260831074545 52 230 0.0 4.0 0.00 0.07 0.07 95 1019.5
20260831073109 52 229 0.0 6.0 0.00 0.07 0.07 95 1019.5
20260831071539 52 229 0.0 6.0 0.00 0.07 0.07 95 1019.6
20260831070040 51 230 2.0 7.0 0.00 0.07 0.07 95 1019.4
20260831064540 51 227 1.0 6.0 0.00 0.07 0.07 95 1019.2
20260831063036 51 223 0.0 5.0 0.00 0.07 0.07 95 1019.1
20260831061538 51 223 0.0 7.0 0.00 0.07 0.07 95 1019.0
20260831060031 51 223 1.0 6.0 0.00 0.07 0.07 95 1018.8
20260831054529 51 219 1.0 5.0 0.01 0.07 0.07 95 1018.6
20260831053034 51 219 0.0 4.0 0.01 0.07 0.07 95 1018.3
20260831051528 52 220 1.0 6.0 0.01 0.07 0.07 95 1018.1
20260831050038 51 220 1.0 6.0 0.01 0.07 0.07 95 1017.8
20260831044501 51 215 0.0 2.0 0.00 0.06 0.06 95 1017.5
20260831043101 51 215 0.0 5.0 0.01 0.06 0.06 95 1017.5
20260831041604 51 216 2.0 10.0 0.01 0.06 0.06 95 1017.4
20260831040058 52 111 1.0 6.0 0.02 0.06 0.06 95 1017.2
20260831034556 52 111 0.0 3.0 0.02 0.06 0.06 94 1016.8
20260831033056 52 111 0.0 4.0 0.01 0.05 0.05 95 1016.8
20260831031555 52 111 0.0 1.0 0.02 0.05 0.05 94 1016.6
20260831030058 52 111 0.0 3.0 0.01 0.04 0.04 94 1016.4
20260831024555 52 111 0.0 3.0 0.01 0.04 0.04 94 1016.2
20260831023024 53 111 0.0 4.0 0.02 0.04 0.04 94 1016.0
20260831021522 53 111 0.0 7.0 0.01 0.03 0.03 94 1016.1
20260831020021 54 111 1.0 8.0 0.01 0.03 0.03 94 1015.9
20260831014518 54 108 0.0 4.0 0.02 0.03 0.03 93 1015.7
20260831013018 54 108 0.0 2.0 0.01 0.02 0.02 93 1015.7
20260831011521 54 108 0.0 8.0 0.01 0.02 0.02 93 1015.8
20260831010015 54 108 1.0 8.0 0.02 0.02 0.02 92 1015.9
20260831004518 55 107 0.0 1.0 0.01 0.01 0.01 93 1016.1
20260831003016 55 107 0.0 6.0 0.01 0.01 0.01 92 1016.1
20260831001511 55 106 3.0 10.0 0.01 0.01 0.01 92 1016.2
20260831000010 55 116 3.0 10.0 0.00 0.00 0.00 91 1016.2
20260830234509 55 117 1.0 3.0 0.00 0.00 0.00 91 1016.3
20260830233014 55 117 0.0 7.0 0.00 0.00 0.00 90 1016.6